TimeCST,TemperatureF,Dew PointF,Humidity,Sea Level PressureIn,VisibilityMPH,Wind Direction,Wind SpeedMPH,Gust SpeedMPH,PrecipitationIn,Events,Conditions,WindDirDegrees,DateUTC
12:53 AM,36.0,28.9,76,30.10,10.0,WNW,5.8,-,N/A,,Clear,300,2012-12-04 06:53:00
1:53 AM,35.1,28.0,76,30.12,10.0,WNW,5.8,-,N/A,,Clear,300,2012-12-04 07:53:00
2:53 AM,33.1,26.1,75,30.14,10.0,WNW,5.8,-,N/A,,Clear,290,2012-12-04 08:53:00
3:53 AM,35.1,26.1,70,30.15,10.0,West,4.6,-,N/A,,Clear,270,2012-12-04 09:53:00
4:53 AM,34.0,25.0,70,30.19,10.0,Calm,Calm,-,N/A,,Clear,0,2012-12-04 10:53:00
5:53 AM,33.8,24.8,70,30.20,10.0,Calm,Calm,-,N/A,,Clear,0,2012-12-04 11:53:00
6:53 AM,30.9,23.0,72,30.24,10.0,West,3.5,-,N/A,,Clear,260,2012-12-04 12:53:00
7:53 AM,28.9,23.0,78,30.27,10.0,WNW,4.6,-,N/A,,Clear,290,2012-12-04 13:53:00
8:53 AM,37.9,27.0,65,30.28,10.0,WSW,3.5,-,N/A,,Clear,250,2012-12-04 14:53:00
9:53 AM,44.1,28.9,55,30.28,10.0,WNW,5.8,-,N/A,,Clear,290,2012-12-04 15:53:00
10:53 AM,51.1,30.0,44,30.28,10.0,Calm,Calm,-,N/A,,Clear,0,2012-12-04 16:53:00
11:53 AM,57.0,28.0,33,30.26,10.0,Variable,3.5,-,N/A,,Clear,0,2012-12-04 17:53:00
12:53 PM,60.1,26.1,27,30.25,10.0,WSW,5.8,-,N/A,,Clear,240,2012-12-04 18:53:00
1:53 PM,63.0,25.0,24,30.23,10.0,West,11.5,-,N/A,,Clear,280,2012-12-04 19:53:00
2:53 PM,63.0,21.9,21,30.23,10.0,West,10.4,-,N/A,,Clear,270,2012-12-04 20:53:00
3:53 PM,61.0,23.0,23,30.24,10.0,West,9.2,-,N/A,,Clear,270,2012-12-04 21:53:00
4:53 PM,54.0,23.0,30,30.25,10.0,WNW,5.8,-,N/A,,Clear,290,2012-12-04 22:53:00
5:53 PM,52.0,21.9,31,30.27,10.0,Calm,Calm,-,N/A,,Clear,0,2012-12-04 23:53:00
6:53 PM,48.0,21.9,36,30.27,10.0,Calm,Calm,-,N/A,,Clear,0,2012-12-05 00:53:00
7:53 PM,44.1,21.9,42,30.29,10.0,Calm,Calm,-,N/A,,Clear,0,2012-12-05 01:53:00
8:53 PM,39.0,21.9,50,30.30,10.0,Calm,Calm,-,N/A,,Clear,0,2012-12-05 02:53:00
9:53 PM,36.0,23.0,59,30.28,10.0,Calm,Calm,-,N/A,,Clear,0,2012-12-05 03:53:00
10:53 PM,35.1,23.0,61,30.30,10.0,NW,3.5,-,N/A,,Clear,320,2012-12-05 04:53:00
11:53 PM,36.0,23.0,59,30.31,10.0,Calm,Calm,-,N/A,,Clear,0,2012-12-05 05:53:00